Location: Cactus School
(34.5700°N, 118.0931°W)
Time: 21:08:39
(UTC-07:00)

A-11 Canister half - Pass Details

Date: 26 April 2024
Orbit: 1525 x 1683 km, 47.3° (Epoch: 23 May)

Event Time Altitude Azimuth Distance (km) Brightness Sun altitude
Exits shadow 05:17:43 12° 248° (WSW) 3,688 10.3 -10.3°
Maximum altitude 05:27:02 68° 330° (NNW) 1,762 9.3 -8.5°
Drops below altitude 10° 05:37:09 10° 53° (NE) 3,944 12.7 -6.6°
Sets 05:40:24 0° 56° (NE) 4,938 13.7 -6.0°
